Location: Avondale
(40.8148°N, 74.1501°W)
Time: 20:47:57
(UTC+00:00)

Daily predictions for brighter satellites

Satellite Brightness Start Highest point End
(mag) Time Altitude Azimuth Time Altitude Azimuth Time Altitude Azimuth
NOAA 6 4.4 21:48:46 10° S 21:53:54 74° WSW 21:59:02 10° NNW
Feng Yun 1-1 Rocket 4.5 21:49:28 10° SE 21:54:34 45° ENE 21:59:41 10° N
COBE Rocket 4.3 21:51:05 10° NNE 21:55:28 39° E 21:59:51 10° SSE
COSMOS 2428 3.1 21:56:12 10° SSW 22:01:50 66° WNW 22:07:30 10° NNE
SL-4 R/B 3.3 21:58:40 10° W 22:01:53 27° NNW 22:05:18 10° NE
Cosmos 1666 4.1 22:02:12 10° NNE 22:04:45 17° ENE 22:07:16 10° ESE
COSMO-SKYMED 1 4.0 22:04:31 10° NE 22:07:36 19° E 22:10:39 10° SE
PSLV R/B 4.0 22:04:38 10° NNE 22:08:48 88° WNW 22:12:55 10° SSW
Meteor 1-5 Rocket 4.1 22:04:15 10° N 22:09:47 72° E 22:15:06 10° SSE
FALCON 9 DEB 4.0 22:06:37 10° SSW 22:09:51 36° SE 22:12:54 11° ENE
Cosmos 2279 Rocket 4.2 22:04:09 10° N 22:10:25 78° W 22:16:39 10° S
BREEZE-M DEB (TANK) 3.2 22:04:52 10° W 22:10:48 43° N 22:13:35 11° ENE
YAOGAN 1 4.2 22:11:04 10° E 22:13:05 13° ENE 22:15:07 10° NE
USA 267 3.2 22:11:54 10° SE 22:18:26 78° NE 22:24:59 10° NW
Aureole 1 Rocket 3.3 22:17:38 10° SSE 22:20:06 24° ESE 22:21:55 14° NE
Okean 1-7 4.2 22:16:49 10° SE 22:20:09 22° E 22:23:30 10° NE
ATLAS 3B R/B 3.8 22:14:08 10° NW 22:20:35 49° WSW 22:27:12 10° S
Exosat Rocket 3.6 22:16:47 10° SSW 22:22:21 85° WNW 22:27:21 10° NNE
Nadezhda 4 Rocket 4.0 22:21:24 10° S 22:27:42 79° E 22:34:02 10° N
Cosmos 1733 Rocket 3.2 22:23:28 10° N 22:27:51 81° W 22:32:15 10° S
STARLINK-52 3.6 22:28:54 10° SSW 22:32:16 46° SE 22:34:23 20° ENE
Cosmos 2278 Rocket 2.2 22:28:06 10° NNW 22:33:48 84° ENE 22:39:27 10° SSE
Cosmos 1812 3.4 22:33:04 10° SSW 22:36:52 57° W 22:40:42 10° N
OAO 2 Rocket 4.2 22:33:43 10° WSW 22:38:25 42° S 22:42:33 13° ESE
STARLINK-29 3.2 22:36:55 10° SW 22:40:25 65° SE 22:42:20 24° ENE
ATLAS 5 CENTAUR R/B 1.9 22:42:39 10° WSW 22:45:06 36° NW 22:46:09 20° N
SL-16 R/B 2.6 22:40:44 10° S 22:46:00 41° ESE 22:49:48 18° NE
Cosmos 2369 Rocket 4.1 22:44:47 10° NNE 22:45:21 11° NNE 22:45:21 11° NNE
NOAA 12 4.0 22:42:25 10° SSE 22:47:43 84° ENE 22:53:02 10° NNW
Cosmos 2026 Rocket 4.0 22:44:11 10° SSE 22:50:01 52° E 22:55:51 10° NNE
YAOGAN 6 2.7 22:46:43 10° SSE 22:50:04 45° ENE 22:53:30 10° N
Cosmos 921 Rocket 3.7 22:49:41 10° N 22:53:31 31° ENE 22:55:47 20° ESE
Cosmos 2333 Rocket 4.1 22:49:00 10° WSW 22:53:45 26° NW 22:58:33 10° N
ISS -3.8 22:51:52 10° NW 22:55:15 83° SW 22:57:16 22° SE
Sich 1 Rocket 4.2 22:51:48 10° NNE 22:55:45 31° ENE 22:59:39 10° SE
SKYMED 2 3.5 22:51:45 11° NNE 22:55:58 63° E 23:00:15 10° S
Cosmos 2237 Rocket 2.7 22:51:28 10° SW 22:57:05 60° WNW 23:02:44 10° NNE
Cosmos 1782 Rocket 3.8 22:53:43 10° N 22:57:54 43° ENE 23:02:01 10° SSE
STARLINK-60 3.7 22:58:38 10° WSW 23:01:55 47° NW 23:03:02 32° NNE
Cosmos 1703 Rocket 3.5 23:01:51 10° S 23:06:18 88° E 23:10:48 10° N
Shenzhou-11 Module 1.9 23:05:29 10° WNW 23:07:55 61° NW 23:07:55 61° NW
Cosmos 2219 Rocket 4.4 23:07:32 10° W 23:11:32 19° NW 23:15:33 10° N
Cosmos 1174 4.1 23:06:20 10° SSW 23:11:42 74° ESE 23:13:25 37° NE
Cosmos 1441 Rocket 3.0 23:09:19 10° N 23:13:08 76° E 23:16:53 10° SSE
Cosmos 614 Rocket 3.8 23:08:24 10° S 23:13:27 68° ESE 23:16:05 28° NNE
Cosmos 1627 Rocket 4.4 23:11:25 10° S 23:17:32 88° W 23:23:42 10° N
Cosmos 1655 Rocket 4.3 23:13:17 10° SSE 23:19:10 42° E 23:21:34 30° NE
Envisat 3.6 23:14:11 10° S 23:19:10 58° W 23:24:12 10° NNW
Okean-O 3.8 23:16:52 10° S 23:21:04 43° W 23:25:19 10° NNW
Cosmos 1943 Rocket 3.7 23:23:36 10° N 23:25:52 20° NNE 23:25:52 20° NNE
Cosmos 1140 Rocket 3.4 23:23:53 10° S 23:28:54 61° ESE 23:29:42 53° ENE
Cosmos 407 Rocket 3.4 23:24:41 10° SSW 23:29:51 89° WNW 23:32:18 33° NNE
CSL-04 Rocket 3.5 23:26:30 10° SSE 23:31:46 82° ENE 23:37:04 10° NNW
CZ-4 R/B 1.6 23:29:08 10° S 23:33:01 65° WSW 23:36:53 10° NNW
Lacrosse 5 rocket 3.6 23:30:32 10° WNW 23:33:03 15° NNW 23:34:01 14° N
Lacrosse 5 4.0 23:30:28 10° SSE 23:31:23 13° SSE 23:31:23 13° SSE
Genesis I 4.1 23:31:01 10° NNW 23:33:30 37° NNW 23:33:30 37° NNW
Cosmos 2297 3.6 23:31:07 10° NNW 23:36:51 83° ENE 23:42:28 10° SSE
OAO 3 Rocket 3.9 23:33:33 10° WSW 23:38:01 42° S 23:38:39 39° SSE
Cosmos 1023 Rocket 4.3 23:34:51 10° SSW 23:39:54 79° ESE 23:40:37 65° NE
Meteor 1-18 Rocket 4.2 23:34:12 10° S 23:39:57 85° W 23:43:56 21° N
Okean 1 3.6 23:36:30 10° SSW 23:40:27 63° W 23:41:00 55° NW
SL-4 R/B 4.2 23:39:51 10° NW 23:41:33 16° NNW 23:41:33 16° NNW
COSMO-SKYMED 1 3.9 23:40:17 12° N 23:43:52 37° WNW 23:47:53 10° SW
Cosmos 1867 4.3 23:38:55 10° NNW 23:42:44 37° NNE 23:42:44 37° NNE
CSL-04 Debris 4.3 23:41:41 10° S 23:47:08 73° WSW 23:52:35 10° NNW
YAOGAN 1 3.0 23:44:25 10° S 23:48:40 59° W 23:52:58 10° NNW
CZ-4C R/B 4.2 23:48:48 10° SSE 23:48:53 11° SSE 23:48:53 11° SSE
